Fort Stockton, TX

11:33 PM CDT on April 27, 2017 (GMT -0500)
Fort Stockton-Pecos County

Weather History for KFST - January, 2014

Change the Weather History Date:

Friday, January 31, 2014

  Actual Average Record
Temperature  
Mean Temperature 68 °F -  
Max Temperature 81 °F 60 °F 82 °F (2006)
Min Temperature 54 °F 36 °F 30 °F (2001)
Cooling Degree Days 2    
Growing Degree Days 18 (Base 50)    
Moisture  
Dew Point 28 °F    
Average Humidity 26    
Maximum Humidity 43    
Minimum Humidity 13    
Precipitation  
Precipitation 0.00 in - - ()
Sea Level Pressure  
Sea Level Pressure 29.70 in    
Wind  
Wind Speed 11 mph (SW)    
Max Wind Speed 15 mph    
Max Gust Speed -    
Visibility 10 miles    
Events      
Averages and records for this station are not official NWS values.
T = Trace of Precipitation, MM = Missing Value Source: NWS Daily Summary

Daily Weather History Graph

Daily Weather History Graph

Search for Another Location

Airport or City:

Trip Planner

Search our weather history database for the weather conditions in past years. The results will help you decide how hot, cold, wet, or windy it might be!

Date:

Astronomy

Jan. 31, 2014 Rise Set
Actual Time 7:44 AM CST 6:26 PM CST
Civil Twilight 7:18 AM CST 6:52 PM CST
Nautical Twilight 6:49 AM CST 7:20 PM CST
Astronomical Twilight 6:21 AM CST 7:49 PM CST
Moon 8:02 AM CST (1/31) 7:44 PM CST (1/31)
Length of Visible Light 11h 33m
Length of Day
10h 42m
New Moon, 1% of the Moon is Illuminated
Jan 31
New Moon
Feb 6
First Quarter
Feb 14
Full
Feb 22
Last Quarter
Mar 1
New

Hourly Weather History & Observations

Time (CST) Temp. Dew Point Humidity Pressure Visibility Wind Dir Wind Speed Gust Speed Precip Events Conditions
12:53 AM 60.1 °F 25.0 °F 26% 29.70 in 10.0 mi SSW 15.0 mph - N/A   Clear
1:53 AM 57.9 °F 25.0 °F 28% 29.70 in 10.0 mi SW 13.8 mph - N/A   Clear
2:53 AM 59.0 °F 25.0 °F 27% 29.69 in 10.0 mi SSW 13.8 mph - N/A   Clear
3:53 AM 57.0 °F 26.1 °F 30% 29.69 in 10.0 mi SSW 13.8 mph - N/A   Clear
4:53 AM 55.9 °F 26.1 °F 32% 29.70 in 10.0 mi SW 12.7 mph - N/A   Clear
5:53 AM 54.0 °F 26.1 °F 34% 29.72 in 10.0 mi SW 13.8 mph - N/A   Clear
6:53 AM 55.9 °F 27.0 °F 33% 29.74 in 10.0 mi SW 13.8 mph - N/A   Clear
7:53 AM 55.0 °F 27.0 °F 34% 29.76 in 10.0 mi SW 12.7 mph - N/A   Clear
8:53 AM 63.0 °F 27.0 °F 26% 29.78 in 10.0 mi SW 13.8 mph - N/A   Clear
9:53 AM 71.1 °F 27.0 °F 19% 29.78 in 10.0 mi SW 9.2 mph - N/A   Clear
10:53 AM 75.0 °F 27.0 °F 17% 29.78 in 10.0 mi SW 6.9 mph - N/A   Clear
11:53 AM 75.9 °F 26.1 °F 16% 29.78 in 10.0 mi SW 5.8 mph - N/A   Clear
12:53 PM 78.1 °F 27.0 °F 15% 29.73 in 10.0 mi WSW 4.6 mph - N/A   Clear
1:53 PM 79.0 °F 27.0 °F 15% 29.68 in 10.0 mi West 5.8 mph - N/A   Clear
2:53 PM 79.0 °F 28.0 °F 15% 29.65 in 10.0 mi SE 6.9 mph - N/A   Clear
3:53 PM 81.0 °F 28.0 °F 14% 29.64 in 10.0 mi North 3.5 mph - N/A   Clear
4:53 PM 80.1 °F 25.0 °F 13% 29.63 in 10.0 mi West 9.2 mph - N/A   Clear
5:53 PM 71.1 °F 30.0 °F 22% 29.65 in 10.0 mi NNW 4.6 mph - N/A   Clear
6:53 PM 64.0 °F 30.0 °F 28% 29.66 in 10.0 mi Calm Calm - N/A   Clear
7:53 PM 63.0 °F 30.9 °F 30% 29.68 in 10.0 mi NW 4.6 mph - N/A   Clear
8:53 PM 59.0 °F 30.9 °F 35% 29.67 in 10.0 mi Calm Calm - N/A   Clear
9:53 PM 60.1 °F 30.9 °F 33% 29.65 in 10.0 mi SSE 10.4 mph - N/A   Clear
10:53 PM 57.9 °F 28.9 °F 33% 29.64 in 10.0 mi SSE 13.8 mph - N/A   Clear
11:53 PM 54.0 °F 32.0 °F 43% 29.65 in 10.0 mi South 9.2 mph - N/A   Clear